Regional Weather Roundup
Issued by NWS

Home | Current Version | Previous Version | Text Only | Print | Product List | Glossary Off
Versions: 1 2 3 4 5 6 7 8 9 10 11 12 13 14 15 16 17 18 19 20 21 22 23 24 25 26 27 28 29 30 31 32 33 34 35 36 37 38 39 40 41 42 43 44 45 46 47 48 49 50

000
ASUS43 KLOT 230509
RWRIL

ILLINOIS REGIONAL WEATHER ROUNDUP
NATIONAL WEATHER SERVICE CHICAGO/ROMEOVILLE IL
1200 AM CDT SUN JUL 23 2017

NOTE: "FAIR" INDICATES FEW OR NO CLOUDS BELOW 12,000 FEET WITH NO
SIGNIFICANT WEATHER AND/OR OBSTRUCTIONS TO VISIBILITY.

* THESE STATIONS ARE NOT UNDER NWS QUALITY CONTROL. THEY ALSO MAY NOT
  REPORT WEATHER SUCH AS PRECIPITATION OR FOG.

ILZ001-002-007-009-015-016-024-230600-
NORTHWEST ILLINOIS

CITY           SKY/WX    TMP DP  RH WIND       PRES   REMARKS
MOLINE         CLOUDY    75  72  90 CALM      29.81F
STERLING*      MOCLDY    75  74  96 W3        29.81F
SAVANNA*       CLOUDY    73  73 100 CALM      29.81F FOG
$$

ILZ003-004-008-010-011-017-018-230600-
NORTH CENTRAL ILLINOIS

CITY           SKY/WX    TMP DP  RH WIND       PRES   REMARKS
ROCKFORD       CLOUDY    76  73  91 CALM      29.82F
FREEPORT*      CLOUDY    73  73  98 W3        29.83F
ROCHELLE*      MOCLDY    73  72  98 CALM      29.82F
DE KALB*       PTCLDY    74  73  96 CALM      29.82F
PERU*          CLEAR     75  73  93 CALM      29.80F
$$

ILZ005-006-012>014-019>023-230600-
NORTHEAST ILLINOIS

CITY           SKY/WX    TMP DP  RH WIND       PRES   REMARKS
CHICAGO-OHARE  PTCLDY    74  68  81 SE6       29.79F
CHICAGO-MIDWAY PTCLDY    76  70  82 E5        29.80F
AURORA         CLEAR     74  73  97 W3        29.81F
LANSING*       PTCLDY    74  68  82 CALM      29.81S
JOLIET*        PTCLDY    76  75  95 CALM      29.80F
WAUKEGAN       PTCLDY    70  70 100 SW5       29.79F
DUPAGE AIRPORT CLEAR     74  72  93 CALM      29.80F
WHEELING       CLEAR     73  72  96 CALM      29.81F
MORRIS*        CLEAR     75  73  94 CALM      29.79F
ROMEOVILLE*    CLEAR     73  68  83 E5        29.81S
NORTHERLY ISL    N/A     72  69  90 CALM        N/A
$$

LMZ740>746-230600-
SOUTHERN LAKE MICHIGAN

STATION/POSITION SKY/WX   TEMP    WIND        PRES    VSBY  WAVE
                          AIR SEA DIR/SP/G                  HT/PER
                          (F)     (DEG/KT/KT) (MB)    (MI)  (FT/S)
SOUTHERN BUOY              70 70  120/  4/  4 1009.2          0
WILMETTE HARBOR            72 74     CALM       N/A           0
HARRISON CRIB              74        CALM       N/A
BURNHAM HARBOR             72                   N/A
CALUMET HARBOR             73      40/  2/  2 1009.1F
BURNS HARBOR               74      80/  5/  6 1010.2S
MICHIGAN CITY              73      70/  2/  3   N/A
MICHIGAN CITY 6N           74 75  100/  4/  6   N/A           0
ST. JOSEPH                 73 75  120/  2/  2 1009.0          1
$$

ILZ025>027-034>036-040-047-049-050-058-095>099-230600-
WEST-CENTRAL ILLINOIS

CITY           SKY/WX    TMP DP  RH WIND       PRES   REMARKS
QUINCY         CLOUDY    81  78  91 N6        29.83R HX  89
GALESBURG*     CLOUDY    76  75  97 CALM      29.84S
MACOMB*        MOCLDY    77  75  93 N5        29.85S
JACKSONVILLE*  CLEAR     79  77  94 CALM      29.81R HX  84
PITTSFIELD*    CLOUDY    82  80  91 N5        29.83R HX  93
$$

ILZ028>032-037-038-041>044-048-051>054-059>061-230600-
CENTRAL ILLINOIS

CITY           SKY/WX    TMP DP  RH WIND       PRES   REMARKS
PONTIAC        CLEAR     74  74  98 SE3       29.82S
BLOOMINGTON    PTCLDY    76  74  93 N7        29.83S
DECATUR        MOCLDY    79  76  90 CALM      29.81S HX  83
PEORIA         PTCLDY    79  77  94 CALM      29.81F HX  83
LACON*         CLEAR     74  74 100 CALM      29.80S
LINCOLN*       CLEAR     78  77  99 CALM      29.81R
SPRINGFIELD    CLEAR     81  79  94 CALM      29.81R HX  90
TAYLORVILLE    PTCLDY    79  78  97 CALM      29.79F HX  83
$$

ILZ033-039-045-046-055>057-062-063-230600-
EAST-CENTRAL ILLINOIS

CITY           SKY/WX    TMP DP  RH WIND       PRES   REMARKS
CHAMPAIGN      CLOUDY    79  76  90 E8        29.82R HX  83
RANTOUL*       PTCLDY    79  77  95 E3        29.82F HX  83
MATTOON        CLOUDY    76  75  97 VRB3      29.81S THUNDER
PARIS*         TSTM      75  75  98 S9        29.84R
$$

ILZ079-100>102-230600-
SOUTHWEST ILLINOIS

CITY           SKY/WX    TMP DP  RH WIND       PRES   REMARKS
ALTON          LGT RAIN  84  76  78 SW9       29.80S HX  93
BELLEVILLE     PTCLDY    82  74  78 SW13      29.81S HX  88
CAHOKIA*       TSTM      78  67  68 W14G23    29.80S HX  80
SPARTA*        PTCLDY    86  74  66 SW8       29.83R HX  94
$$

ILZ064>066-069>071-074>076-080>082-084>086-088>090-092>094-230600-
SOUTH-CENTRAL ILLINOIS

CITY           SKY/WX    TMP DP  RH WIND       PRES   REMARKS
CARBONDALE     CLEAR     86  76  71 SW14      29.82F HX  96
CAIRO*         CLEAR     84  76  77 SW8       29.86S HX  92
EFFINGHAM*     PTCLDY    83  75  75 SE3       29.80F HX  90
MARION         CLEAR     86  75  70 SW12      29.83F HX  95
MT. VERNON     CLEAR     85  76  74 SW12      29.81S HX  94
CENTRALIA*     PTCLDY    86  77  73 SW9       29.80S HX  96
SALEM*         MOCLDY    87  75  66 SW9       29.80S HX  96
METROPOLIS*    CLEAR     82  76  81 SW7       29.87S HX  90
$$

ILZ067-068-072-073-078-083-087-091-230600-
SOUTHEAST ILLINOIS

CITY           SKY/WX    TMP DP  RH WIND       PRES   REMARKS
LAWRENCEVILLE  MOCLDY    83  73  72 E8        29.81F HX  89
FLORA*         CLOUDY    83  76  79 SW7       29.80F HX  91
FAIRFIELD*     PTCLDY    82  75  80 S5        29.79F HX  88
HARRISBURG*    PTCLDY    84  76  77 SW7       29.84S HX  93
ROBINSON*      CLOUDY    73  69  86 N18       29.83S THUNDER
CARMI*         MOCLDY    84  76  76 SW9       29.82S HX  92
$$

ABBREVIATIONS USED IN REMARKS
   TC - TEMPERATURE IN CELSIUS
  WCI - WIND CHILL INDEX
   HX - HEAT INDEX
  VSB - VISIBILITY
$$





USA.gov is the U.S. government's official web portal to all federal, state and local government web resources and services.